Charleston, SC

1:35 PM EDT on June 23, 2017 (GMT -0400)
Charleston Executive

Weather History for KJZI - January, 2014

Change the Weather History Date:

Friday, January 17, 2014

  Actual Average (KCHS) Record (KCHS)
Temperature  
Mean Temperature 44 °F -  
Max Temperature 57 °F 57 °F 78 °F (1949)
Min Temperature 32 °F 35 °F 17 °F (1959)
Degree Days  
Heating Degree Days 20    
Moisture  
Dew Point 37 °F    
Average Humidity 69    
Maximum Humidity 93    
Minimum Humidity 41    
Precipitation  
Precipitation 0.03 in - - ()
Sea Level Pressure  
Sea Level Pressure 30.05 in    
Wind  
Wind Speed 5 mph (SSW)    
Max Wind Speed 16 mph    
Max Gust Speed 26 mph    
Visibility 10 miles    
Events Rain    
Averages and records for this station are not official NWS values.
T = Trace of Precipitation, MM = Missing Value Source: NWS Daily Summary

Daily Weather History Graph

Daily Weather History Graph

Search for Another Location

Airport or City:

Trip Planner

Search our weather history database for the weather conditions in past years. The results will help you decide how hot, cold, wet, or windy it might be!

Date:

Astronomy

Jan. 17, 2014 Rise Set
Actual Time 7:21 AM EST 5:38 PM EST
Civil Twilight 6:55 AM EST 6:05 PM EST
Nautical Twilight 6:25 AM EST 6:35 PM EST
Astronomical Twilight 5:55 AM EST 7:04 PM EST
Moon 7:15 PM EST (1/17) 7:55 AM EST (1/17)
Length of Visible Light 11h 09m
Length of Day
10h 16m
Full, 98% of the Moon is Illuminated
Jan 17
Full
Jan 24
Last Quarter
Jan 30
New
Feb 6
First Quarter
Feb 14
Full

Hourly Weather History & Observations

Time (EST) Temp. Windchill Dew Point Humidity Pressure Visibility Wind Dir Wind Speed Gust Speed Precip Events Conditions
12:15 AM 35.6 °F - 28.4 °F 75% 30.11 in 10.0 mi Calm Calm - 0.00 in   Clear
12:35 AM 33.8 °F - 28.4 °F 81% 30.11 in 10.0 mi Calm Calm - 0.00 in   Clear
12:55 AM 35.6 °F - 28.4 °F 75% 30.11 in 10.0 mi Calm Calm - 0.00 in   Clear
1:15 AM 35.6 °F - 28.4 °F 75% 30.11 in 10.0 mi Calm Calm - 0.00 in   Clear
1:35 AM 33.8 °F - 28.4 °F 81% 30.12 in 10.0 mi Calm Calm - 0.00 in   Clear
1:55 AM 33.8 °F 29.6 °F 28.4 °F 81% 30.13 in 10.0 mi West 4.6 mph - 0.00 in   Clear
2:15 AM 35.6 °F - 28.4 °F 75% 30.13 in 10.0 mi Calm Calm - 0.00 in   Clear
2:35 AM 35.6 °F - 28.4 °F 75% 30.12 in 10.0 mi Calm Calm - 0.00 in   Clear
2:55 AM 33.8 °F - 28.4 °F 81% 30.12 in 10.0 mi Calm Calm - 0.00 in   Clear
3:15 AM 33.8 °F - 30.2 °F 87% 30.12 in 10.0 mi Calm Calm - 0.00 in   Clear
3:35 AM 33.8 °F - 28.4 °F 81% 30.11 in 10.0 mi Calm Calm - 0.00 in   Clear
3:55 AM 33.8 °F - 28.4 °F 81% 30.11 in 10.0 mi Calm Calm - 0.00 in   Clear
4:15 AM 32.0 °F - 28.4 °F 87% 30.10 in 10.0 mi Calm Calm - 0.00 in   Clear
4:35 AM 32.0 °F - 30.2 °F 93% 30.11 in 10.0 mi Calm Calm - 0.00 in   Clear
4:55 AM 32.0 °F - 28.4 °F 87% 30.10 in 10.0 mi Calm Calm - 0.00 in   Clear
5:15 AM 32.0 °F - 28.4 °F 87% 30.10 in 10.0 mi Calm Calm - 0.00 in   Clear
5:35 AM 32.0 °F - 28.4 °F 87% 30.11 in 10.0 mi Calm Calm - 0.00 in   Clear
5:55 AM 32.0 °F - 28.4 °F 87% 30.11 in 10.0 mi Calm Calm - 0.00 in   Clear
6:15 AM 32.0 °F - 28.4 °F 87% 30.11 in 10.0 mi Calm Calm - 0.00 in   Clear
6:35 AM 32.0 °F - 28.4 °F 87% 30.11 in 10.0 mi Calm Calm - 0.00 in   Clear
6:55 AM 32.0 °F - 30.2 °F 93% 30.11 in 10.0 mi Calm Calm - 0.00 in   Clear
7:15 AM 33.8 °F - 28.4 °F 81% 30.11 in 10.0 mi Calm Calm - 0.00 in   Clear
7:35 AM 35.6 °F - 28.4 °F 75% 30.11 in 10.0 mi Calm Calm - 0.00 in   Clear
7:55 AM 39.2 °F 34.2 °F 28.4 °F 65% 30.12 in 10.0 mi SW 6.9 mph - 0.00 in   Clear
8:15 AM 41.0 °F 37.1 °F 26.6 °F 57% 30.11 in 10.0 mi SW 5.8 mph - 0.00 in   Clear
8:35 AM 42.8 °F - 30.2 °F 61% 30.12 in 10.0 mi Calm Calm - 0.00 in   Clear
8:55 AM 44.6 °F 41.4 °F 28.4 °F 53% 30.12 in 10.0 mi SW 5.8 mph - 0.00 in   Clear
9:15 AM 46.4 °F 42.9 °F 28.4 °F 50% 30.13 in 10.0 mi SW 6.9 mph - 0.00 in   Clear
9:35 AM 48.2 °F - 30.2 °F 50% 30.13 in 10.0 mi SW 8.1 mph - 0.00 in   Clear
9:55 AM 51.8 °F - 30.2 °F 44% 30.13 in 10.0 mi SW 8.1 mph - 0.00 in   Clear
10:15 AM 53.6 °F - 32.0 °F 44% 30.13 in 10.0 mi SW 9.2 mph - 0.00 in   Clear
10:35 AM 55.4 °F - 32.0 °F 41% 30.12 in 10.0 mi SW 8.1 mph - 0.00 in   Clear
10:55 AM 55.4 °F - 33.8 °F 44% 30.12 in 10.0 mi SSW 8.1 mph - 0.00 in   Clear
11:15 AM 55.4 °F - 33.8 °F 44% 30.12 in 10.0 mi SSW 9.2 mph - 0.00 in   Clear
11:35 AM 57.2 °F - 35.6 °F 44% 30.10 in 10.0 mi SW 9.2 mph - 0.00 in   Clear
11:55 AM 57.2 °F - 35.6 °F 44% 30.09 in 10.0 mi SSW 9.2 mph - 0.00 in   Clear
12:15 PM 57.2 °F - 37.4 °F 48% 30.07 in 10.0 mi SSW 10.4 mph - 0.00 in   Clear
12:35 PM 57.2 °F - 39.2 °F 51% 30.06 in 10.0 mi South 12.7 mph - 0.00 in   Clear
12:55 PM 57.2 °F - 39.2 °F 51% 30.04 in 10.0 mi South 12.7 mph - 0.00 in   Clear
1:15 PM 57.2 °F - 39.2 °F 51% 30.03 in 10.0 mi South 10.4 mph - 0.00 in   Clear
1:35 PM 57.2 °F - 41.0 °F 55% 30.02 in 10.0 mi South 12.7 mph - 0.00 in   Clear
1:55 PM 57.2 °F - 41.0 °F 55% 30.01 in 10.0 mi South 13.8 mph 18.4 mph 0.00 in   Clear
2:15 PM 57.2 °F - 41.0 °F 55% 30.01 in 10.0 mi South 13.8 mph 20.7 mph 0.00 in   Clear
2:35 PM 57.2 °F - 41.0 °F 55% 30.00 in 10.0 mi SSW 16.1 mph 20.7 mph 0.00 in   Clear
2:55 PM 57.2 °F - 42.8 °F 59% 29.99 in 10.0 mi SSW 12.7 mph 18.4 mph 0.00 in   Clear
3:15 PM 57.2 °F - 42.8 °F 59% 29.99 in 10.0 mi South 16.1 mph 21.9 mph 0.00 in   Clear
3:35 PM 55.4 °F - 42.8 °F 63% 29.99 in 10.0 mi SSW 12.7 mph 18.4 mph 0.00 in   Clear
3:55 PM 55.4 °F - 44.6 °F 67% 29.99 in 10.0 mi SSW 13.8 mph 21.9 mph 0.00 in   Partly Cloudy
4:15 PM 57.2 °F - 44.6 °F 63% 29.99 in 10.0 mi SSW 13.8 mph 18.4 mph 0.00 in   Clear
4:35 PM 55.4 °F - 44.6 °F 67% 29.98 in 10.0 mi SSW 11.5 mph 26.5 mph 0.00 in   Clear
4:55 PM 55.4 °F - 46.4 °F 72% 29.98 in 10.0 mi SSW 12.7 mph 16.1 mph 0.00 in   Clear
5:15 PM 55.4 °F - 46.4 °F 72% 29.98 in 10.0 mi SSW 9.2 mph 16.1 mph 0.00 in   Clear
5:35 PM 55.4 °F - 46.4 °F 72% 29.97 in 10.0 mi SSW 11.5 mph 16.1 mph 0.00 in   Clear
5:55 PM 55.4 °F - 46.4 °F 72% 29.97 in 10.0 mi SSW 11.5 mph - 0.00 in   Clear
6:15 PM 55.4 °F - 48.2 °F 77% 29.97 in 10.0 mi SSW 11.5 mph 18.4 mph 0.00 in   Clear
6:35 PM 55.4 °F - 48.2 °F 77% 29.96 in 10.0 mi SSW 15.0 mph 20.7 mph 0.00 in   Clear
6:55 PM 55.4 °F - 48.2 °F 77% 29.96 in 10.0 mi SSW 13.8 mph 19.6 mph 0.00 in   Clear
7:15 PM 55.4 °F - 48.2 °F 77% 29.96 in 10.0 mi SSW 13.8 mph 20.7 mph 0.00 in   Clear
7:35 PM 55.4 °F - 48.2 °F 77% 29.95 in 10.0 mi SSW 13.8 mph 24.2 mph 0.00 in   Clear
7:55 PM 55.4 °F - 48.2 °F 77% 29.95 in 10.0 mi SSW 12.7 mph 23.0 mph 0.00 in   Clear
8:15 PM 57.2 °F - 48.2 °F 72% 29.95 in 10.0 mi SSW 15.0 mph 20.7 mph 0.00 in   Clear
8:35 PM 57.2 °F - 48.2 °F 72% 29.96 in 10.0 mi SSW 15.0 mph 19.6 mph 0.00 in   Clear
8:55 PM 57.2 °F - 48.2 °F 72% 29.95 in 10.0 mi SSW 15.0 mph 20.7 mph 0.00 in   Clear
9:15 PM 57.2 °F - 50.0 °F 77% 29.95 in 10.0 mi SW 11.5 mph 20.7 mph 0.00 in   Clear
9:35 PM 57.2 °F - 50.0 °F 77% 29.95 in 10.0 mi SW 10.4 mph 17.3 mph 0.00 in   Clear
9:55 PM 57.2 °F - 50.0 °F 77% 29.95 in 10.0 mi SW 9.2 mph 18.4 mph 0.00 in   Scattered Clouds
10:15 PM 57.2 °F - 50.0 °F 77% 29.93 in 10.0 mi SW 10.4 mph - 0.00 in   Mostly Cloudy
10:35 PM 48.2 °F - 46.4 °F 93% 29.97 in 2.0 mi West 12.7 mph 24.2 mph 0.03 in Rain Light Rain
10:55 PM 50.0 °F - 44.6 °F 82% 29.97 in 2.5 mi SW 11.5 mph 25.3 mph 0.03 in   Haze
11:15 PM 51.8 °F - 42.8 °F 71% 29.98 in 7.0 mi SW 10.4 mph 25.3 mph 0.00 in Rain Light Rain
11:35 PM 50.0 °F - 44.6 °F 82% 29.96 in 10.0 mi WNW 9.2 mph - 0.00 in   Mostly Cloudy
11:55 PM 51.8 °F - 37.4 °F 58% 29.97 in 10.0 mi West 9.2 mph 18.4 mph 0.00 in   Overcast